SL-14 DEB

Satellite information

Favourite Embed

Satellite Type and Status

DEBRISIN ORBIT

Key statistics

Satellite SL-14 DEB at a glance.

Uptime

13998

Days in orbit

Revolutions

≈ 14.5

Per day

Orbit

LEO

Low Earth Orbit

Inclination

82.5

Latest

Satellite identification and parameters

Extended collection of information and parameters for SL-14 DEB.

Object identification

Identified? True

Debris? True

Object name: SL-14 DEB

International designator: 1987-068DF

Object number (NORAD): 39979

Object ID (CCSDS): 39979

Country: COMMONWEALTH OF INDEPENDENT STATES (CIS)

Current information (Y/N): Y

RCS size: SMALL

Orbital parameters

Period: 99.022 minutes

Inclination: 82.5191 deg

SMA: 7090.017 km

Apoapsis: 727.979 km

Periapsis: 695.785 km

RAAN: 15.4659 deg

Eccentricy: 0.00227038

Argument of periapsis: 230.1451 deg

Mean anomaly: 129.7751 deg

Mean motion: 14.54225767 rev/day

Mean motion (dot): 0.00016586 rev/day2

B* drag term: 0.0038930624 1/REarth

Two-line elements (TLE)

Creation date: Dec. 10, 2025, 7:58 p.m.

Reference frame: TEME

Reference center: EARTH

Epoch: Dec. 10, 2025, 8:44 a.m. UTC

TLE line 0: 0 SL-14 DEB

TLE line 1: 1 39979U 87068DF 25344.36412201 .00016586 00000-0 38931-2 0 9995

TLE line 2: 2 39979 82.5191 15.4659 0022704 230.1451 129.7751 14.54225767599767

Live tracking on map

Real-time ground track for satellite SL-14 DEB.

In-orbit conjunctions

A list of the most updated potential collisions computed for object SL-14 DEB.

Target Orbit TCA Probability of collision Miss distance Type
CZ-6A DEB SSO 2025-03-06 05:14:59 0.0001391585 34.0 (m) DEBRIS
SL-8 R/B LEO 2025-01-11 08:54:30 0.0002823318 178.0 (m) ROCKET BODY
SL-3 R/B LEO 2024-11-20 06:16:24 0.0001413744 484.0 (m) ROCKET BODY

Associated space launch

Second generation soviet meteorological satellite

SL-14 DEB was lifted into orbit during the mission ‘Tsiklon-3 | Meteor-2 16’, on board a Tsiklon-3 space rocket.

The launch took place on Aug. 18, 1987, 2:27 a.m. from 32/1.

For more information about the launch, click the button.

Launch to space Tsiklon-3 | Meteor-2 16
Tsiklon-3 | Meteor-2 16

Agency: N/A

Status: Launch Successful

Launch date: Aug. 18, 1987, 2:27 a.m. UTC

Rocket: Tsiklon-3

Launch pad: 32/1

Location: Plesetsk Cosmodrome, Russian Federation

...

Latest news about this satellite

There are no fresh news available about this satellite. Check back as we update our databases every day.


Newsletter sign-up

Weekly statistics, charts and insights to help you stay on top of the space industry.